This is the latest recevied weather packets stored in our database for station/object KB1RMA-4. If no packets are shown the sender has not sent any weather packets the latest 10 day(s).
| Time | Temp. | Humidity | Pressure | Rain* | Wind** | Luminosity | Snow |
|---|---|---|---|---|---|---|---|
| 1787757313 | 23.89° C | 59% | 1017.9 hPa | 0 mm | - | 766 W/m² | - |
| 1787757007 | 24.44° C | 58% | 1018.1 hPa | 0 mm | - | 691 W/m² | - |
| 1787756702 | 23.89° C | 62% | 1018.1 hPa | 0 mm | - | 737 W/m² | - |
| 1787756401 | 24.44° C | 59% | 1018 hPa | 0 mm | - | 126 W/m² | - |
| 1787756096 | 24.44° C | 58% | 1018 hPa | 0 mm | - | 743 W/m² | - |
| 1787755791 | 24.44° C | 58% | 1018 hPa | 0 mm | - | 366 W/m² | - |
| 1787755490 | 26.11° C | 55% | 1017.9 hPa | 0 mm | - | 165 W/m² | - |
| 1787755185 | 26.11° C | 52% | 1018 hPa | 0 mm | - | 735 W/m² | - |
| 1787754878 | 26.11° C | 57% | 1018.1 hPa | 0 mm | - | 731 W/m² | - |
| 1787754578 | 25.56° C | 53% | 1018 hPa | 0 mm | - | 717 W/m² | - |
| 1787754276 | 25.56° C | 53% | 1017.9 hPa | 0 mm | - | 713 W/m² | - |
| 1787753971 | 24.44° C | 56% | 1018.4 hPa | 0 mm | - | 702 W/m² | - |
| 1787753670 | 23.89° C | 56% | 1018.2 hPa | 0 mm | - | 694 W/m² | - |
| 1787753370 | 23.89° C | 58% | 1018.3 hPa | 0 mm | - | 678 W/m² | - |
| 1787753064 | 22.78° C | 60% | 1018.2 hPa | 0 mm | - | 694 W/m² | - |
| 1787752763 | 22.78° C | 62% | 1018.1 hPa | 0 mm | - | 274 W/m² | - |
| 1787752458 | 22.22° C | 63% | 1017.9 hPa | 0 mm | - | 404 W/m² | - |
| 1787752154 | 22.22° C | 64% | 1018 hPa | 0 mm | - | 80 W/m² | - |
| 1787751853 | 21.67° C | 63% | 1017.9 hPa | 0 mm | - | 68 W/m² | - |
| 1787751549 | 21.67° C | 63% | 1018.1 hPa | 0 mm | - | 64 W/m² | - |
| 1787751243 | 21.67° C | 66% | 1018 hPa | 0 mm | - | 184 W/m² | - |
| 1787750938 | 21.11° C | 67% | 1017.9 hPa | 0 mm | - | 203 W/m² | - |
| 1787750635 | 21.11° C | 67% | 1017.6 hPa | 0 mm | - | 150 W/m² | - |
| 1787750329 | 21.11° C | 68% | 1018.1 hPa | 0 mm | - | 61 W/m² | - |
| 1787750029 | 21.11° C | 68% | 1018 hPa | 0 mm | - | 77 W/m² | - |
* Rain latest hour (hover to see other rain measurements)
** Current wind speed in m/s (hover to see current wind gust speed)